Boscobel, WI

1:51 PM CDT on July 24, 2017 (GMT -0500)
Boscobel

Weather History for KOVS - December, 2012

Change the Weather History Date:

Thursday, December 6, 2012

  Actual Average (KPDC) Record (KPDC)
Temperature  
Mean Temperature 42 °F -  
Max Temperature 48 °F 35 °F 56 °F (1975)
Min Temperature 35 °F 18 °F -10 °F (1977)
Degree Days  
Heating Degree Days 24    
Moisture  
Dew Point 33 °F    
Average Humidity 73    
Maximum Humidity 89    
Minimum Humidity 63    
Precipitation  
Precipitation 0.00 in - - ()
Sea Level Pressure  
Sea Level Pressure 29.97 in    
Wind  
Wind Speed 4 mph (SSW)    
Max Wind Speed 12 mph    
Max Gust Speed 26 mph    
Visibility 9 miles    
Events      
Averages and records for this station are not official NWS values.
T = Trace of Precipitation, MM = Missing Value Source: NWS Daily Summary

Daily Weather History Graph

Daily Weather History Graph

Search for Another Location

Airport or City:

Trip Planner

Search our weather history database for the weather conditions in past years. The results will help you decide how hot, cold, wet, or windy it might be!

Date:

Astronomy

Dec. 06, 2012 Rise Set
Actual Time 7:20 AM CST 4:27 PM CST
Civil Twilight 6:48 AM CST 4:59 PM CST
Nautical Twilight 6:12 AM CST 5:35 PM CST
Astronomical Twilight 5:38 AM CST 6:09 PM CST
Moon No Moon Rise 12:03 PM CST (12/6)
Length of Visible Light 10h 11m
Length of Day
9h 07m
Waning Gibbous, 49% of the Moon is Illuminated
Dec 6
Waning Gibbous
Dec 13
New
Dec 19
First Quarter
Dec 28
Full
Jan 4
Last Quarter

Hourly Weather History & Observations

Time (CST) Temp. Windchill Dew Point Humidity Pressure Visibility Wind Dir Wind Speed Gust Speed Precip Events Conditions
12:53 AM 37.9 °F - 27.0 °F 65% 30.13 in 10.0 mi Calm Calm - N/A   Overcast
1:53 AM 37.9 °F - 28.9 °F 70% 30.11 in 10.0 mi Calm Calm - N/A   Overcast
2:53 AM 37.0 °F 33.3 °F 30.0 °F 76% 30.09 in 10.0 mi Variable 4.6 mph - N/A   Mostly Cloudy
3:53 AM 37.9 °F 34.4 °F 30.0 °F 73% 30.06 in 10.0 mi Variable 4.6 mph - N/A   Overcast
4:53 AM 39.0 °F 34.0 °F 30.9 °F 73% 30.01 in 10.0 mi Variable 6.9 mph - N/A   Overcast
5:53 AM 39.9 °F 33.4 °F 30.9 °F 70% 30.02 in 10.0 mi SSW 10.4 mph 26.5 mph N/A   Overcast
6:53 AM 39.9 °F 35.1 °F 30.9 °F 70% 30.02 in 10.0 mi SSW 6.9 mph 16.1 mph N/A   Overcast
7:53 AM 39.9 °F 34.5 °F 32.0 °F 73% 30.00 in 10.0 mi South 8.1 mph - N/A   Overcast
8:53 AM 41.0 °F 34.3 °F 32.0 °F 70% 29.98 in 10.0 mi SSW 11.5 mph 16.1 mph N/A   Overcast
9:53 AM 44.1 °F 38.6 °F 33.1 °F 65% 29.98 in 10.0 mi SSW 10.4 mph - N/A   Overcast
10:53 AM 44.1 °F 39.5 °F 33.1 °F 65% 29.95 in 10.0 mi South 8.1 mph - N/A   Overcast
11:53 AM 46.0 °F 43.1 °F 34.0 °F 63% 29.92 in 10.0 mi SSW 5.8 mph - N/A   Overcast
12:53 PM 46.9 °F - 35.1 °F 63% 29.88 in 10.0 mi SW 9.2 mph - N/A   Overcast
1:53 PM 48.0 °F - 36.0 °F 63% 29.88 in 10.0 mi WSW 6.9 mph - N/A   Overcast
2:53 PM 48.0 °F - 36.0 °F 63% 29.88 in 10.0 mi SSW 10.4 mph - N/A   Overcast
3:53 PM 46.9 °F - 37.0 °F 68% 29.89 in 10.0 mi SW 8.1 mph - N/A   Mostly Cloudy
4:53 PM 45.0 °F 42.6 °F 36.0 °F 71% 29.89 in 10.0 mi SW 4.6 mph - N/A   Clear
5:53 PM 43.0 °F 40.3 °F 36.0 °F 76% 29.90 in 10.0 mi SW 4.6 mph - N/A   Scattered Clouds
6:53 PM 43.0 °F 38.8 °F 37.0 °F 80% 29.92 in 10.0 mi Variable 6.9 mph - N/A   Clear
7:53 PM 42.1 °F - 35.1 °F 76% 29.94 in 10.0 mi Calm Calm - N/A   Clear
8:53 PM 42.1 °F - 34.0 °F 73% 29.94 in 10.0 mi Calm Calm - N/A   Clear
9:53 PM 39.9 °F - 33.1 °F 77% 29.95 in 10.0 mi Calm Calm - N/A   Clear
10:51 PM 35.6 °F - 32.0 °F 87% 29.95 in 2.5 mi Calm Calm - N/A   Clear
10:53 PM 35.1 °F - 30.9 °F 85% 29.97 in 3.0 mi Calm Calm - N/A   Clear
11:00 PM 35.6 °F - 30.2 °F 81% 29.94 in 1.8 mi Calm Calm - N/A   Clear
11:06 PM 35.6 °F - 30.2 °F 81% 29.94 in 3.0 mi Calm Calm - N/A   Clear
11:53 PM 35.1 °F 32.2 °F 32.0 °F 89% 29.97 in 10.0 mi SSW 3.5 mph - N/A   Partly Cloudy